Regional Weather Roundup
Issued by NWS

Home | Current Version | Previous Version | Graphics & Text | Print | Product List | Glossary On
Versions: 1 2 3 4 5 6 7 8 9 10 11 12 13 14 15 16 17 18 19 20 21 22 23 24 25 26 27 28 29 30 31 32 33 34 35 36 37 38 39 40 41 42 43 44 45 46 47 48 49 50
000
ASUS43 KLOT 021306
RWRIL

ILLINOIS REGIONAL WEATHER ROUNDUP
NATIONAL WEATHER SERVICE CHICAGO/ROMEOVILLE IL
700 AM CST MON MAR 02 2015

NOTE: "FAIR" INDICATES FEW OR NO CLOUDS BELOW 12,000 FEET WITH NO
SIGNIFICANT WEATHER AND/OR OBSTRUCTIONS TO VISIBILITY.

* THESE STATIONS ARE NOT UNDER NWS QUALITY CONTROL. THEY ALSO MAY NOT
  REPORT WEATHER SUCH AS PRECIPITATION OR FOG.

ILZ001-002-007-009-015-016-024-021400-
NORTHWEST ILLINOIS

CITY           SKY/WX    TMP DP  RH WIND       PRES   REMARKS
MOLINE         FAIR       5   1  83 W3        30.52S
STERLING*      CLEAR     -2  -8  78 CALM      30.51R
SAVANNA*       PTCLDY     3  -1  84 S5        30.52R FOG     WCI  -7
$$

ILZ003-004-008-010-011-017-018-021400-
NORTH CENTRAL ILLINOIS

CITY           SKY/WX    TMP DP  RH WIND       PRES   REMARKS
ROCKFORD       PTCLDY     5   2  87 CALM      30.50R
FREEPORT*      PTCLDY     7   3  86 W3        30.50S
ROCHELLE*      CLEAR     -5  -8  86 CALM      30.50R FOG
DE KALB*       PTCLDY     7   4  87 W7        30.48R WCI  -5
PERU*          PTCLDY     9   6  87 NW8       30.51S WCI  -3
$$

ILZ005-006-012>014-019>023-021400-
NORTHEAST ILLINOIS

CITY           SKY/WX    TMP DP  RH WIND       PRES   REMARKS
CHICAGO-OHARE  PTCLDY    14   8  77 W10       30.47R WCI   1
CHICAGO-MIDWAY PTCLDY    16  10  77 W5        30.48R WCI   9
AURORA         MOCLDY     3   0  87 W7        30.49R FOG     WCI  -9
LANSING*       MOCLDY     6   2  86 W3        30.49R
JOLIET*        MOCLDY    -1  -5  85 CALM      30.51R
WAUKEGAN       PTCLDY    12   8  84 W5        30.45R WCI   4
DUPAGE AIRPORT PTCLDY    11   6  81 NW6       30.47R WCI   1
KANKAKEE*      MOCLDY     3  -1  86 W7        30.50R WCI -10
WHEELING       PTCLDY    14   7  73 W6        30.49R WCI   5
MORRIS*        MOCLDY     3   1  91 W3        30.50R
ROMEOVILLE*    MOCLDY     8   5  88 W8        30.49R WCI  -5
NORTHERLY ISL    N/A     18  11  74 W9          N/A  WCI   7
$$

LMZ740>746-021400-
SOUTHERN LAKE MICHIGAN

STATION/POSITION SKY/WX   TEMP    WIND        PRES    VSBY  WAVE
                          AIR SEA DIR/SP/G                  HT/PER
                          (F)     (DEG/KT/KT) (MB)    (MI)  (FT/S)
WAUKEGAN HARBOR            15     280/  7/ 16   N/A
HARRISON CRIB              19     290/ 13/ 16   N/A
BURNHAM HARBOR             19     270/  8/ 12   N/A
CALUMET HARBOR             17     250/  5/  7 1030.6R
MICHIGAN CITY              16     200/ 10/ 11   N/A
$$

ILZ025>027-034>036-040-047-049-050-058-095>099-021400-
WEST-CENTRAL ILLINOIS

CITY           SKY/WX    TMP DP  RH WIND       PRES   REMARKS
QUINCY         MOCLDY    17  13  84 CALM      30.52R FOG
GALESBURG*     PTCLDY     6   4  91 CALM      30.51S
MACOMB*        FOG        5   4  93 W5        30.54S VSB 3/4 WCI  -4
JACKSONVILLE*  FOG       15  13  90 SW5       30.53S VSB<1/4 WCI   8
PITTSFIELD*    PTCLDY    14  12  90 NW6       30.53S FOG     WCI   5
$$

ILZ028>032-037-038-041>044-048-051>054-059>061-021400-
CENTRAL ILLINOIS

CITY           SKY/WX    TMP DP  RH WIND       PRES   REMARKS
PONTIAC        PTCLDY     6   2  86 W3        30.52R FOG
BLOOMINGTON    MOCLDY    15  11  84 NW6       30.50R WCI   6
DECATUR        CLOUDY    18  15  88 W6        30.51S WCI  10
PEORIA         MOCLDY    18  12  77 NW5       30.52R WCI  11
LACON*         PTCLDY     8   5  89 CALM      30.52S
LINCOLN*       MOCLDY    13  10  87 CALM      30.56R FOG
SPRINGFIELD    PTCLDY    15  13  91 W3        30.53S FOG
TAYLORVILLE    FOG       12  10  92 CALM      30.53S VSB<1/4
$$

ILZ033-039-045-046-055>057-062-063-021400-
EAST-CENTRAL ILLINOIS

CITY           SKY/WX    TMP DP  RH WIND       PRES   REMARKS
CHAMPAIGN      MOCLDY     9   8  96 W8        30.51R FOG     WCI  -3
DANVILLE*      MOCLDY    12   9  85 W3        30.48R
RANTOUL*       MOCLDY    12   9  86 W9        30.51R FOG     WCI   0
MATTOON        MOCLDY    14  10  84 W5        30.50R FOG     WCI   6
PARIS*         MOCLDY    13  12  92 CALM      30.52R
$$

ILZ079-100>102-021400-
SOUTHWEST ILLINOIS

CITY           SKY/WX    TMP DP  RH WIND       PRES   REMARKS
ALTON          PTCLDY    12  10  92 CALM      30.54S FOG
BELLEVILLE     MOCLDY    11  10  96 CALM      30.54R
CAHOKIA*       MOCLDY    12   9  87 CALM      30.55S FOG
SPARTA*        FOG       15  13  92 CALM      30.55F VSB<1/4
$$

ILZ064>066-069>071-074>076-080>082-084>086-088>090-092>094-021400-
SOUTH-CENTRAL ILLINOIS

CITY           SKY/WX    TMP DP  RH WIND       PRES   REMARKS
CARBONDALE     CLEAR     22  18  85 CALM      30.56R FOG
CAIRO*         CLEAR     29  22  74 NE8       30.53F WCI  21
EFFINGHAM*     MOCLDY    10   6  82 CALM      30.55R FOG
MARION         MOCLDY    23  19  86 N6        30.56R WCI  16
MT. VERNON     PTCLDY     9   1  72 CALM      30.54S
CENTRALIA*     FOG        9   6  87 CALM      30.55R VSB<1/4
SALEM*         MOCLDY   N/A N/A N/A CALM      30.54S HAZE
METROPOLIS*    PTCLDY    27  21  80 NE5       30.53S WCI  21
$$

ILZ067-068-072-073-078-083-087-091-021400-
SOUTHEAST ILLINOIS

CITY           SKY/WX    TMP DP  RH WIND       PRES   REMARKS
LAWRENCEVILLE  FOG       13   9  84 NW5       30.55R VSB<1/4 WCI   5
FLORA*         FOG       10   8  92 CALM      30.55S VSB<1/4
FAIRFIELD*       N/A     13  11  91 CALM      30.55R FOG
HARRISBURG*    PTCLDY    24  20  85 CALM      30.57R
ROBINSON*      PTCLDY     7   5  93 CALM      30.55R FOG
CARMI*         FAIR      24  23  93 CALM      30.55R
$$

ABBREVIATIONS USED IN REMARKS
   TC - TEMPERATURE IN CELSIUS
  WCI - WIND CHILL INDEX
   HX - HEAT INDEX
  VSB - VISIBILITY
$$




USA.gov is the U.S. government's official web portal to all federal, state and local government web resources and services.